{"data":{"norad_id":63720,"epoch":"2026-09-20T15:13:42.653280Z","epoch_age_seconds":141008,"freshness":"FRESH","line1":"1 63720U 25087Z   26263.63452145  .00019641  00000+0  59097-3 0  9992","line2":"2 63720  53.1612  32.8422 0001099  79.2473 280.8654 15.34397174 79069","mean_motion":15.34397174,"eccentricity":0.0001099,"inclination_deg":53.1612,"raan_deg":32.8422,"arg_perigee_deg":79.2473,"mean_anomaly_deg":280.8654,"bstar":0.00059097,"rev_number":7906,"period_min":93.847930926911,"perigee_km":461.95983042205,"apogee_km":463.46344895305,"semimajor_km":6840.8486396875,"source":"CELESTRAK","updated_at":"2026-09-21T09:00:35.091485Z"}}